www.pogodaiklimat.ru

Погода и климат >> Архив погоды >> Катар >> Dukhan


ПОГОДА в Dukhan

  • Прогноз погоды в Dukhan
  • Монитор погоды в Dukhan
  • Климат города

АРХИВ ПОГОДЫ в Dukhan

Время (UTC), дата Ветер
(напр.,м/с)
 
Видим.   Явления Облачность Т
(С)
Тd
(С)
f
(%)
Тe
(С)
Тes
(С)
Комфортность P
(гПа)
Po
(гПа)
Тmin
(С)
Tmax
(С)
R
(мм)
R24
(мм)
S
(см)
03 12.12 С 20 20 км н/о +21.0 +15.5 71 +23 +23 комфорт 1020.0 1019.8
06 12.12 С 17 16 км н/о +21.1 +16.3 74 +24 +24 комфорт 1021.5 1021.3 +20.8
09 12.12 СЗ 13 9000 м н/о +22.0 +17.3 75 +26 +26 душно 1019.9 1019.7
12 12.12 С 14 17 км н/о +22.8 +16.2 66 +27 +27 душно 1019.2 1019.0
15 12.12 С 4 20 км н/о +21.6 +15.8 70 +25 +25 комфорт 1019.9 1019.7
18 12.12 С 4 20 км н/о +20.6 +16.1 75 +24 +24 комфорт 1020.6 1020.4 +22.8
21 12.12 С 7 20 км н/о +21.1 +16.6 75 +25 +25 комфорт 1020.1 1019.9
00 13.12 СЗ 11 20 км н/о +20.8 +17.1 79 +24 +24 комфорт 1019.6 1019.4
03 13.12 СЗ 9 20 км н/о +20.8 +16.6 77 +24 +24 комфорт 1020.7 1020.5
06 13.12 СЗ 10 20 км н/о +21.4 +16.4 73 +25 +25 комфорт 1022.9 1022.7 +20.0
09 13.12 С 9 20 км н/о +21.9 +17.2 75 +26 +26 душно 1021.4 1021.2
12 13.12 С 9 20 км н/о +22.4 +17.1 72 +27 +27 душно 1019.7 1019.5
15 13.12 С 4 20 км н/о +21.1 +15.9 72 +24 +24 комфорт 1021.0 1020.8
18 13.12 СВ 3 20 км н/о +20.3 +17.2 82 +24 +24 комфорт 1021.5 1021.3 +22.6
21 13.12 С 2 13 км н/о +20.0 +17.2 84 +23 +23 комфорт 1021.3 1021.1
00 14.12 С 4 15 км н/о +19.7 +17.0 84 +22 +22 комфорт 1020.7 1020.5
03 14.12 С 4 20 км н/о +20.0 +16.5 80 +23 +23 комфорт 1021.8 1021.6
06 14.12 С 5 20 км н/о +22.3 +17.4 74 +27 +27 душно 1023.6 1023.4 +18.7
09 14.12 С 10 14 км н/о +22.5 +18.4 78 +28 +28 душно 1021.9 1021.7
12 14.12 С 11 14 км н/о +22.8 +18.2 75 +28 +28 душно 1020.7 1020.5
15 14.12 С 4 20 км н/о +22.3 +16.9 71 +27 +27 душно 1021.8 1021.6
18 14.12 С 5 20 км н/о +21.2 +16.8 76 +25 +25 комфорт 1022.5 1022.3 +22.8
21 14.12 С 4 20 км н/о +20.9 +16.1 74 +24 +24 комфорт 1021.5 1021.3
00 15.12 С 11 20 км н/о +22.2 +17.2 73 +27 +27 душно 1021.1 1020.9
03 15.12 С 11 20 км н/о +22.0 +18.3 80 +27 +27 душно 1021.5 1021.3
06 15.12 С 11 9000 м н/о +22.4 +19.4 83 +28 +28 душно 1023.4 1023.2 +20.4
09 15.12 С 13 н/о н/о +22.8 +19.8 83 +29 +29 очень
душно
1021.8 1021.6
12 15.12 С 7 20 км н/о +24.6 +13.6 50 +27 +27 жарко 1020.8 1020.6
15 15.12 С 9 14 км н/о +22.3 +17.2 73 +27 +27 душно 1022.1 1021.9
18 15.12 С 8 16 км н/о +21.5 +17.3 77 +26 +26 душно 1023.2 1023.0 +24.6
21 15.12 С 14 20 км н/о +21.5 +17.1 76 +25 +25 комфорт 1022.5 1022.3
00 16.12 С 15 20 км н/о +21.3 +17.9 81 +25 +25 комфорт 1022.4 1022.2
03 16.12 С 16 12 км н/о +20.4 +17.4 83 +23 +23 комфорт 1023.7 1023.5
06 16.12 С 13 11 км н/о +21.2 +17.3 78 +25 +25 комфорт 1025.2 1025.0 +20.1
09 16.12 С 13 16 км н/о +22.8 +15.8 65 +27 +27 душно 1023.1 1022.9
12 16.12 С 12 20 км н/о +22.7 +16.0 66 +27 +27 душно 1022.0 1021.8
15 16.12 С 4 20 км н/о +20.8 +15.0 69 +24 +24 комфорт 1023.3 1023.1
18 16.12 С 5 20 км н/о +19.6 +14.4 72 +21 +21 комфорт 1024.1 1023.9 +22.9
21 16.12 С 4 20 км н/о +19.0 +13.4 70 +20 +20 1023.4 1023.2
00 17.12 СВ 2 20 км н/о +19.1 +13.8 71 +21 +21 комфорт 1022.3 1022.1
03 17.12 СВ 4 18 км н/о +16.1 +13.3 83 +15 +15 1022.3 1022.1
06 17.12 В 4 20 км н/о +21.6 +12.7 57 +24 +24 комфорт 1023.6 1023.4 +15.4
09 17.12 З 7 20 км н/о +21.9 +14.5 63 +25 +25 комфорт 1021.2 1021.0
12 17.12 СЗ 6 20 км н/о +22.0 +14.8 64 +25 +25 комфорт 1019.7 1019.5
15 17.12 С 1 20 км н/о +20.5 +13.9 66 +24 +24 комфорт 1020.3 1020.1
18 17.12 СВ 4 20 км н/о +19.7 +14.6 72 +22 +22 комфорт 1021.5 1021.3 +23.2
21 17.12 В 4 19 км н/о +16.5 +13.0 80 +16 +16 1021.1 1020.9
00 18.12 ЮВ 5 17 км н/о +15.6 +12.6 82 +14 +14 1020.1 1019.9
03 18.12 ЮЗ 4 16 км н/о +17.2 +15.2 88 +17 +17 1021.6 1021.4
06 18.12 Ю 4 20 км н/о +21.3 +16.0 72 +25 +25 комфорт 1023.2 1023.0 +14.8
09 18.12 Ю 5 20 км н/о +23.4 +13.5 54 +27 +27 душно 1021.6 1021.4
12 18.12 ЮЗ 3 20 км н/о +24.5 +11.0 43 +26 +26 жарко 1019.5 1019.3
15 18.12 СВ 4 20 км н/о +21.4 +12.4 56 +24 +24 комфорт 1020.4 1020.2
18 18.12 В 5 20 км н/о +17.3 +11.6 69 +17 +17 1021.1 1020.9 +24.9
21 18.12 В 4 20 км н/о +16.8 +9.0 60 +16 +16 1020.4 1020.2
00 19.12 ЮВ 3 20 км н/о +16.4 +10.8 69 +16 +16 1020.2 1020.0

 

Местоположение метеостанции Dukhan (Катар): широта 25.40 долгота 50.75 высота над уровнем моря 5 м.

В архиве по умолчанию представлена погода в Dukhan за последнюю неделю. Архивные данные за месяц целиком и за предыдущие месяцы, начиная с января 2011 года, Вы можете получить, выбрав интересующий диапазон дат из раскрывающегося списка и нажав кнопку "Ввод!".


*Определитесь, кто Вы:
робот инопланетянин человек

Внимание! Время в таблицах - всемирное. Для получения местного времени необходимо прибавить поправку, которая в Dukhan равна 4 ч.

Смотрите также архив погоды в соседних городах и на ближайших метеорологических станциях:

Погода в Abu Samra (Катар) (73 км)
Погода в Doha (Катар) (84 км)
Погода в Hamad Int Airport (Катар) (88 км)
Погода в Bahrain (Бахрейн) (97 км)
Погода в Dhahran (Саудовская Аравия) (113 км)
Погода в Al Ahsa (Саудовская Аравия) (128 км)
Погода в King Fahd Int Airport (Саудовская Аравия) (149 км)
Погода в Bandar Deyr (Иран) (295 км)
Погода в Kish Island (Иран) (345 км)
Погода в Sirri Island (Иран) (385 км)

Пояснения к столбцам:

Ветер - указаны скорость ветра в м/с - средняя за 10 мин, порывы в срок и между сроками (в фигурных скобках) и направление, откуда дует ветер: С - северный, СВ - северо-восточный, В - восточный, ЮВ - юго-восточный, Ю - южный, ЮЗ - юго-западный, З - западный, СЗ - северо-западный.
Видимость - горизонтальная дальность видимости в метрах или километрах. При видимости от 1 до 10 км при отсутствии осадков обычно наблюдается дымка, при ухудшении видимости до 1 км и менее - туман. В сухую погоду видимость может ухудшаться дымом, пылью или мглою.
Явления - указаны атмосферные явления, наблюдавшиеся в срок или в последний час перед сроком; фигурными скобками обозначены явления, наблюдавшиеся между сроками (за 1-3 часа до срока); квадратными скобками обозначены град или гололедные отложения с указанием их диаметра в мм.
Облачность - указаны через наклонную черту общая и нижняя облачность в баллах и высота нижней границы облаков в метрах; квадратными скобками обозначены формы облаков: Ci - перистые, Cs - перисто-слоистые, Cc - перисто-кучевые, Ac - высококучевые, As - высокослоистые, Sc - слоисто-кучевые, Ns - слоисто-дождевые, Cu - кучевые, Cb - кучево-дождевые. Подробнее классификацию облаков см. в Атласе облаков (PDF).
T - Температура воздуха - температура, измеренная на высоте 2 м над землей.
Td - Температура точки росы - температура, при понижении до которой содержащийся в воздухе водяной пар достигнет насыщения.
f - Относительная влажность воздуха - влажноcть воздуха, измеренная на высоте 2 м над землей.
Te - Эффективная температура - температура, которую ощущает одетый по сезону человек в тени. Характеристика душности погоды. При расчете учитывается влияние влажности воздуха и скорости ветра на теплоощущения человека.
Tes - Эффективная температура на солнце - температура, которую ощущает человек, с поправкой на солнечный нагрев. Характеристика знойности погоды. Зависит от высоты солнца над горизонтом, облачности и скорости ветра. Ночью, в пасмурную погоду, а также при ветре 12 м/с и более поправка равна нулю.
P - Атмосферное давление - приведенное к уровню моря атмосферное давление.
Po - Атмосферное давление - измеренное на уровне метеостанции атмосферное давление.
Tmin - Минимальная температура - минимум температуры воздуха на высоте 2 м над землей.
Tmax - Максимальная температура - максимум температуры воздуха на высоте 2 м над землей.
R - Количество осадков - Количество выпавших осадков за период времени, мм. При наведении курсора мыши на число - период времени, за который выпало указанное количество осадков.
R24 - Количество осадков - Количество выпавших осадков за 24 часа, мм.
S - Снежный покров - Высота снежного покрова, см. При наведении курсора мыши на число - состояние снежного покрова и степень покрытия местности в баллах.